Location: Acton
(51.4942°N, 0.2232°W)
Time: 02:33:57
(UTC+00:00)

OBJECT-B - Pass Details

Date: 18 September 2020
Orbit: 421 x 433 km, 97.0° (Epoch: 09 October)

Event Time Altitude Azimuth Distance (km) Brightness Sun altitude
Exits shadow 19:01:25 13° 101° (ESE) 1,336 2.6 -9.1°
Maximum altitude 19:03:06 18° 65° (ENE) 1,105 2.4 -9.4°
Drops below altitude 10° 19:05:26 10° 19° (NNE) 1,525 3.6 -9.7°
Sets 19:07:51 0° 0° (N) 2,399 4.8 -10.1°
